Other Public Products
Issued by NWS Grand Forks, ND

Home | Current Version | Previous Version | Text Only | Print | Product List | Glossary Off
Versions: 1 2 3 4 5 6 7 8 9 10 11 12 13 14 15 16 17 18 19 20 21 22 23 24 25 26 27 28 29 30 31 32 33 34 35 36 37 38 39 40 41 42 43 44 45 46 47 48 49 50

839
FPUS83 KFGF 292010
OPUFGF
PRAIRIE TO PINES WEATHER ROUNDUP
NATIONAL WEATHER SERVICE EASTERN NORTH DAKOTA/GRAND FORKS ND
300 PM CDT MON MAY 29 2017

 **SATELLITE DATA USED TO AUGMENT SKY COVER AT AUTOMATED STATIONS**
 *****  WEATHER ACROSS EASTERN NORTH DAKOTA  *****

CITY           SKY/WX    TMP DP  RH WIND       PRES   REMARKS
GRAND FORKS    PTSUNNY   60  49  66 NW15      29.87S
GRAND FORKS AF LGT RAIN  56  49  80 N8        29.88S
GRAND CITY NWS NOT AVBL
BUXTON         NOT AVBL
DEVILS LAKE    LGT RAIN  55  45  68 NW17      29.93S
FARGO          CLOUDY    59  46  62 NW22G30   29.89R
WAHPETON ARPT  MOCLDY    59  45  58 NW13G20   29.91F
$$

 *****  WEATHER ACROSS CENTRAL AND WESTERN NORTH DAKOTA  *****

CITY           SKY/WX    TMP DP  RH WIND       PRES   REMARKS
JAMESTOWN      NOT AVBL
BISMARCK       CLOUDY    62  36  37 NW15G25   30.03F
MINOT          CLOUDY    63  38  39 NW22G29   29.99S
MINOT AFB      PTSUNNY   62  37  39 N26G35    29.97F
GARRISON         N/A     61  37  41 NW24G35   30.01S
WILLISTON      PTSUNNY   67  33  28 NW21G28   30.09F
DICKINSON      FAIR      63  29  27 NW20G31   30.07F
HETTINGER      FAIR      66  33  29 NW24G33   30.10F
$$

 *****  OTHER OBSERVATIONS NORTHEAST NORTH DAKOTA  *****

CITY           SKY/WX    TMP DP  RH WIND       PRES   REMARKS
WALHALLA       NOT AVBL
LANGDON        CLOUDY    54  46  76 NW23      29.90R
CAVALIER       MOCLDY    52  45  76 N16G24    29.88R
GRAFTON        DRIZZLE   54  48  82 N16G28    29.89R
CANDO          NOT AVBL
FORT TOTTEN      N/A     55  43  63 NW10      29.95S
ROLLA          CLOUDY    52  46  82 NW22      29.94S
RUGBY          NOT AVBL
 ***** THE ABOVE OBSERVATIONS ARE NON NWS ARE NOT QUALITY
        CONTROLLED AND MAY MIS-REPORT RAIN FOR SNOW...
$$

 *****  OTHER OBSERVATIONS SOUTHEAST NORTH DAKOTA *****

CITY           SKY/WX    TMP DP  RH WIND       PRES   REMARKS
COOPERSTOWN    MOCLDY    57  45  62 NW26G32   29.92F
VALLEY CITY    DRIZZLE   55  45  67 NW22G29   29.94S
OAKES          NOT AVBL
GWINNER        CLOUDY    57  45  62 MISG      29.95R
SHEYENNE NWR     N/A     56  51  82 NW7       29.95S
BUFFALO        NOT AVBL
WYNDMERE         N/A     61  46  59 NW16        N/A
 ***** THE ABOVE OBSERVATIONS ARE NON NWS ARE NOT QUALITY
       CONTROLLED AND MAY MIS-REPORT RAIN FOR SNOW...
$$

  *****  WEATHER ACROSS NORTHERN MINNESOTA  *****

CITY           SKY/WX    TMP DP  RH WIND       PRES   REMARKS
FLAG ISLAND    CLOUDY    52  39  62 NW21      29.77R
WARROAD        CLOUDY    54  43  66 NW17G23   29.80S
ROSEAU         PTSUNNY   55  45  67 NW12      29.81S
HALLOCK        CLOUDY    54  45  71 NW20G28   29.85S
THF RVR FALLS  CLOUDY    55  46  71 NW21      29.85S
HALSTAD          N/A     58  48  69 NW14        N/A
FOSSTON        PTSUNNY   55  46  71 NW18      29.85S
BAUDETTE       CLOUDY    54  41  61 NW21G26   29.77
WASKISH        CLOUDY    54  43  66 NW15      29.79S
CROOKSTON      DRIZZLE   54  50  87 NW18G28   29.87S
$$
  *****  WEATHER ACROSS CENTRAL AND WEST MINNESOTA  *****

CITY           SKY/WX    TMP DP  RH WIND       PRES   REMARKS
BEMIDJI        CLOUDY    54  44  68 NW15      29.83R
PARK RAPIDS    CLOUDY    57  43  59 NW20G25   29.84
WADENA         CLOUDY    55  45  67 NW13G23   29.87R
DETROIT LAKES  FAIR      55  46  71 NW15G21   29.88F
MOORHEAD       PTSUNNY   57  48  72 NW16      29.90R
FERGUS FALLS   PTSUNNY   57  48  72 NW15G25   29.88F
ELBOW LAKE     CLOUDY    55  47  76 W12G24    29.91S
MORRIS MN      FAIR      61  46  59 NW23      29.91S
STAPLES        CLOUDY    54  43  66 NW18G24   29.86R
WHEATON        FAIR      59  45  58 NW10G20   29.94F
$$
  *****  WEATHER ELSEWHERE ACROSS MINNESOTA  *****

CITY           SKY/WX    TMP DP  RH WIND       PRES   REMARKS
DULUTH         LGT RAIN  55  49  80 NW15G26   29.73R
INTRNTL FALLS  CLOUDY    54  44  69 NW17G28   29.73R
ELY            CLOUDY    52  48  87 W10G18    29.69R
CLOQUET        PTSUNNY   57  45  62 W13G18    29.75R
BRAINERD       CLOUDY    55  45  68 NW15G23   29.83R
HIBBING        CLOUDY    53  49  86 W8G17     29.74S
ALEXANDRIA     CLOUDY    58  47  66 NW15G23   29.90S
SAINT CLOUD    CLOUDY    61  48  62 NW14G22   29.82S
MINNEAPOLIS    PTSUNNY   63  48  58 NW18G25   29.82S
$$

  *****  WEATHER ACROSS SOUTH DAKOTA  *****

CITY           SKY/WX    TMP DP  RH WIND       PRES   REMARKS
SIOUX FALLS    PTSUNNY   64  45  49 NW22G28   29.98S
BROOKINGS      CLOUDY    58  47  66 W21G30    29.97S
WATERTOWN      CLOUDY    57  46  66 NW17      29.97S
HURON          CLOUDY    62  44  51 NW14G24   30.02S
SISSETON         N/A     58  51  78 NW15      29.93F
ABERDEEN       CLOUDY    63  38  39 NW17G28   29.99S
MITCHELL       LGT RAIN  64  44  48 NW18G26   30.04S
PIERRE         PTSUNNY   69  37  30 NW18G31   30.04F
MOBRIDGE       PTSUNNY   67  36  31 NW22G30   30.01F
RAPID CITY     FAIR      69  29  22 N20G31    30.13F
$$

  *****  SOME WEATHER IN NEARBY STATES *****

CITY           SKY/WX    TMP DP  RH WIND       PRES   REMARKS
GLASGOW MT     FAIR      67  32  27 W15G26    30.16F
GREAT FALLS MT FAIR      72  41  32 VRB3      30.15F
CHEYENNE WY    CLOUDY    60  41  49 SE8       30.25F
SCOTTSBLUFF NE FAIR      72  33  24 NW17G29   30.16F
OMAHA NE       FAIR      74  38  27 NW22G30   29.99F
DES MOINES IA  FAIR      76  40  27 W25G35    29.93F
DAVENPORT IA   FAIR      75  42  30 W25G32    29.88F
CHICAGO IL     FAIR      76  40  27 W24G33    29.82F
EAU CLAIRE WI  PTSUNNY   62  52  69 W18G24    29.77S
LA CROSSE WI   LGT RAIN  61  51  70 NW14      29.82R
$$

  *****  SOME NATIONAL WEATHER *****

CITY           SKY/WX    TMP DP  RH WIND       PRES   REMARKS
LA GUARDIA NY  CLOUDY    58  53  84 NE12      30.02R
RALEIGH NC     PTSUNNY   86  63  45 W8        29.97R
ATLANTA GA     TSTM      71  68  90 NW12      30.04F
NEW ORLEANS LA CLOUDY    85  70  60 SE9       30.00F
OKLAHOMA CITY  FAIR      87  44  22 VRB6G18   30.04F
ALBUQUERQUE NM PTSUNNY   79  31  17 W8        30.12F
SALT LAKE CITY FAIR      81  35  19 NW12      30.10F
LOS ANGELES CA PTSUNNY   67  57  70 SW12      29.93S
BOISE ID       FAIR      84  39  20 CALM      30.06F
SEATTLE WA     FAIR      63  53  70 S8        30.02F
$$

*** WEATHER ACROSS MANITOBA...SASKATCHEWAN AND ONTARIO ***
                ***ONTARIO***

CITY           SKY/WX    TMP DP  RH WIND       PRES   REMARKS
GERALDTON      PTSUNNY   61  46  59 S10       29.53F
THUNDER BAY    LGT RAIN  57  54  88 W8        29.57S
SIOUX LOOKOUT  CLOUDY    52  50  93 NW14G23   29.63R
TORONTO        PTSUNNY   77  45  31 W17G25    29.79R
BIG TROUT LK     N/A     45  45 100 N8G17     29.60
PICKLE LAKE    LGT RAIN  52  52 100 NW7       29.57R
DRYDEN         CLOUDY    54  48  82 NW8       29.67R
KENORA         NOT AVBL
$$
                *** MANITOBA***

CITY           SKY/WX    TMP DP  RH WIND       PRES   REMARKS
BRANDON        CLOUDY    54  43  66 NW21G32   29.93S
DAUPHIN        CLOUDY    50  43  76 N14G22    29.95R
ISLAND LAKE    LGT RAIN  43  41  93 NW13G18   29.77S
PILOT MOUND      N/A     52  45  76 NW18G26     N/A
THE PAS        LGT RAIN  46  41  81 N16G23    30.02S
THOMPSON       CLOUDY    43  39  87 N10G18    29.92S
WINNIPEG       CLOUDY    48  41  76 NW17G28   29.86R
LYNN LAKE      CLOUDY    46  41  81 N20G26    30.09S
CHURCHILL      CLOUDY    36  34  93 N18       29.94R
GILLAM         CLOUDY    46  37  71 N21       29.81F
$$
                ***SASKATCHEWAN***

CITY           SKY/WX    TMP DP  RH WIND       PRES   REMARKS
ESTEVAN        PTSUNNY   64  36  34 NW21G38   30.04F
KINDERSLEY     SUNNY     66  30  26 VRB6      30.17F
LLOYDMINSTER   SUNNY     63  34  34 VRB8      30.20F
PRINCE ALBERT  MOSUNNY   64  30  27 NW14G28   30.11S
REGINA         MOSUNNY   64  28  25 NW24G37   30.08F
YORKTON        CLOUDY    55  39  54 N20G29    30.02S



USA.gov is the U.S. government's official web portal to all federal, state and local government web resources and services.